When you browse on this site, cookies collect data to enhance your experience and personalize the content and advertising you see.
Visit our Privacy Policy to learn more. By continuing to use the site, you agree to this use of cookies and data.
  • In Norway
  • List of Countries
  • For 7 days
  • Water Temperature
  • Satellite Maps
  • Weather Map
  • Weather Widgets
  • user-avatar
    Login

    Hourly Weather Irbid

    Today, 22 March, Friday

    Time Temperature Precipitation Wind Pressure Humidity
    00:00 +12°C° 0 mm 1 mps 711 mmHg 86%
    01:00 +11°C° 0 mm 1 mps 711 mmHg 86%
    02:00 +11°C° 0 mm 1 mps 711 mmHg 87%
    03:00 +11°C° 0 mm 1 mps 711 mmHg 88%
    04:00 +10°C° 0 mm 1 mps 711 mmHg 89%
    05:00 +9°C° 0 mm 0 mps 711 mmHg 91%
    06:00 +11°C° 0 mm 0 mps 711 mmHg 85%
    07:00 +12°C° 0 mm 0 mps 712 mmHg 78%
    08:00 +13°C° 0 mm 0 mps 712 mmHg 72%
    09:00 +16°C° 0 mm 1 mps 713 mmHg 65%
    10:00 +18°C° 0 mm 1 mps 713 mmHg 58%
    11:00 +20°C° 0 mm 1 mps 713 mmHg 50%
    12:00 +20°C° 0 mm 2 mps 713 mmHg 49%
    13:00 +20°C° 0 mm 3 mps 712 mmHg 47%
    14:00 +21°C° 0 mm 3 mps 712 mmHg 46%
    15:00 +20°C° 0.2 mm 4 mps 712 mmHg 54%
    16:00 +19°C° 0.2 mm 4 mps 711 mmHg 62%
    17:00 +18°C° 0.2 mm 4 mps 711 mmHg 69%
    18:00 +16°C° 0.1 mm 3 mps 711 mmHg 76%
    19:00 +15°C° 0.1 mm 2 mps 711 mmHg 82%
    20:00 +14°C° 0.1 mm 1 mps 711 mmHg 88%
    21:00 +13°C° 0 mm 1 mps 711 mmHg 90%
    22:00 +13°C° 0 mm 1 mps 711 mmHg 91%
    23:00 +12°C° 0 mm 1 mps 711 mmHg 92%

    Tomorrow, 23 March, Saturday

    Time Temperature Precipitation Wind Pressure Humidity
    00:00 +12°C° 0 mm 1 mps 711 mmHg 93%
    01:00 +11°C° 0 mm 1 mps 711 mmHg 93%
    02:00 +11°C° 0 mm 1 mps 711 mmHg 93%
    03:00 +11°C° 0 mm 1 mps 710 mmHg 93%
    04:00 +10°C° 0 mm 0 mps 710 mmHg 92%
    05:00 +9°C° 0 mm 0 mps 710 mmHg 92%
    06:00 +11°C° 0 mm 0 mps 710 mmHg 85%
    07:00 +12°C° 0 mm 0 mps 710 mmHg 78%
    08:00 +13°C° 0 mm 0 mps 711 mmHg 71%
    09:00 +16°C° 0 mm 1 mps 711 mmHg 63%
    10:00 +18°C° 0 mm 1 mps 711 mmHg 56%
    11:00 +19°C° 0 mm 2 mps 711 mmHg 49%
    12:00 +20°C° 0 mm 3 mps 710 mmHg 45%
    13:00 +20°C° 0 mm 4 mps 710 mmHg 42%
    14:00 +21°C° 0 mm 5 mps 710 mmHg 39%
    15:00 +20°C° 0 mm 5 mps 709 mmHg 43%
    16:00 +19°C° 0 mm 5 mps 709 mmHg 47%
    17:00 +16°C° 0 mm 5 mps 708 mmHg 51%
    18:00 +15°C° 0 mm 4 mps 708 mmHg 58%
    19:00 +13°C° 0 mm 3 mps 708 mmHg 65%
    20:00 +13°C° 0 mm 2 mps 708 mmHg 72%
    21:00 +12°C° 0 mm 2 mps 708 mmHg 74%
    22:00 +11°C° 0 mm 1 mps 708 mmHg 76%
    23:00 +11°C° 0 mm 1 mps 707 mmHg 78%

    Day after tomorrow, 24 March, Sunday

    Time Temperature Precipitation Wind Pressure Humidity
    00:00 +10°C° 0 mm 1 mps 707 mmHg 78%
    01:00 +9°C° 0 mm 0 mps 706 mmHg 79%
    02:00 +8°C° 0 mm 0 mps 706 mmHg 79%
    03:00 +8°C° 0 mm 0 mps 705 mmHg 78%
    04:00 +8°C° 0 mm 0 mps 705 mmHg 77%
    05:00 +7°C° 0 mm 0 mps 705 mmHg 76%
    06:00 +10°C° 0 mm 1 mps 705 mmHg 66%
    07:00 +12°C° 0 mm 1 mps 706 mmHg 57%
    08:00 +14°C° 0 mm 2 mps 706 mmHg 47%
    09:00 +16°C° 0 mm 3 mps 706 mmHg 43%
    10:00 +17°C° 0 mm 4 mps 706 mmHg 39%
    11:00 +19°C° 0 mm 5 mps 706 mmHg 35%
    12:00 +19°C° 0 mm 6 mps 706 mmHg 36%
    13:00 +19°C° 0 mm 6 mps 705 mmHg 37%
    14:00 +18°C° 0 mm 7 mps 705 mmHg 39%
    15:00 +17°C° 0 mm 7 mps 704 mmHg 42%
    16:00 +16°C° 0 mm 6 mps 704 mmHg 46%
    17:00 +15°C° 0 mm 6 mps 703 mmHg 50%
    18:00 +13°C° 0 mm 5 mps 703 mmHg 56%
    19:00 +12°C° 0 mm 4 mps 704 mmHg 62%
    20:00 +10°C° 0 mm 3 mps 704 mmHg 68%
    21:00 +10°C° 0 mm 3 mps 704 mmHg 71%
    22:00 +9°C° 0 mm 3 mps 704 mmHg 73%
    23:00 +9°C° 0 mm 3 mps 704 mmHg 76%

    25 March, Monday

    Time Temperature Precipitation Wind Pressure Humidity
    00:00 +8°C° 0 mm 3 mps 703 mmHg 76%
    01:00 +8°C° 0 mm 3 mps 703 mmHg 75%
    02:00 +7°C° 0 mm 3 mps 703 mmHg 75%
    03:00 +7°C° 0 mm 3 mps 703 mmHg 72%
    04:00 +5°C° 0 mm 3 mps 703 mmHg 70%
    05:00 +5°C° 0 mm 3 mps 703 mmHg 67%
    06:00 +6°C° 0 mm 4 mps 703 mmHg 59%
    07:00 +7°C° 0 mm 5 mps 704 mmHg 51%
    08:00 +8°C° 0 mm 6 mps 705 mmHg 42%
    09:00 +9°C° 0 mm 7 mps 705 mmHg 41%
    10:00 +10°C° 0 mm 8 mps 705 mmHg 39%
    11:00 +11°C° 0 mm 9 mps 705 mmHg 37%
    12:00 +10°C° 0 mm 9 mps 705 mmHg 40%
    13:00 +10°C° 0 mm 9 mps 705 mmHg 42%
    14:00 +10°C° 0 mm 9 mps 704 mmHg 45%
    15:00 +8°C° 0 mm 9 mps 705 mmHg 46%
    16:00 +9°C° 0 mm 8 mps 705 mmHg 48%
    17:00 +9°C° 0 mm 8 mps 705 mmHg 49%
    18:00 +8°C° 0 mm 7 mps 706 mmHg 54%
    19:00 +7°C° 0 mm 5 mps 706 mmHg 58%
    20:00 +6°C° 0 mm 4 mps 706 mmHg 63%
    21:00 +6°C° 0 mm 4 mps 706 mmHg 65%
    22:00 +5°C° 0 mm 4 mps 706 mmHg 68%
    23:00 +5°C° 0 mm 3 mps 706 mmHg 71%

    26 March, Tuesday

    Time Temperature Precipitation Wind Pressure Humidity
    00:00 +5°C° 0 mm 3 mps 706 mmHg 72%
    01:00 +5°C° 0 mm 3 mps 706 mmHg 73%
    02:00 +5°C° 0 mm 2 mps 706 mmHg 75%
    03:00 +5°C° 0 mm 2 mps 706 mmHg 76%
    04:00 +5°C° 0 mm 2 mps 707 mmHg 78%
    05:00 +5°C° 0 mm 2 mps 707 mmHg 80%
    06:00 +7°C° 0 mm 3 mps 707 mmHg 77%
    07:00 +8°C° 0 mm 4 mps 708 mmHg 74%
    08:00 +9°C° 0 mm 5 mps 708 mmHg 71%
    09:00 +10°C° 0 mm 5 mps 709 mmHg 67%
    10:00 +12°C° 0 mm 5 mps 709 mmHg 63%
    11:00 +13°C° 0 mm 6 mps 709 mmHg 59%
    12:00 +14°C° 0 mm 6 mps 709 mmHg 55%
    13:00 +15°C° 0 mm 6 mps 709 mmHg 51%
    14:00 +15°C° 0 mm 6 mps 709 mmHg 47%
    15:00 +14°C° 0 mm 6 mps 709 mmHg 53%
    16:00 +14°C° 0 mm 5 mps 708 mmHg 58%
    17:00 +13°C° 0 mm 5 mps 708 mmHg 64%
    18:00 +11°C° 0 mm 3 mps 709 mmHg 71%
    19:00 +10°C° 0 mm 2 mps 709 mmHg 77%
    20:00 +9°C° 0 mm 1 mps 709 mmHg 84%
    21:00 +9°C° 0 mm 1 mps 709 mmHg 84%
    22:00 +8°C° 0 mm 0 mps 709 mmHg 85%
    23:00 +7°C° 0 mm 0 mps 709 mmHg 86%

    27 March, Wednesday

    Time Temperature Precipitation Wind Pressure Humidity
    00:00 +7°C° 0 mm 0 mps 709 mmHg 85%
    01:00 +7°C° 0 mm 0 mps 709 mmHg 84%
    02:00 +8°C° 0 mm 1 mps 709 mmHg 83%
    03:00 +8°C° 0 mm 1 mps 709 mmHg 82%
    04:00 +8°C° 0 mm 1 mps 709 mmHg 82%
    05:00 +8°C° 0 mm 1 mps 709 mmHg 81%
    06:00 +9°C° 0 mm 1 mps 710 mmHg 75%
    07:00 +10°C° 0 mm 2 mps 711 mmHg 70%
    08:00 +12°C° 0 mm 2 mps 711 mmHg 65%
    09:00 +13°C° 0 mm 2 mps 711 mmHg 61%
    10:00 +14°C° 0 mm 3 mps 711 mmHg 58%
    11:00 +15°C° 0 mm 4 mps 711 mmHg 55%
    12:00 +15°C° 0.1 mm 4 mps 711 mmHg 53%
    13:00 +16°C° 0.1 mm 5 mps 711 mmHg 51%
    14:00 +16°C° 0.1 mm 6 mps 711 mmHg 48%
    15:00 +16°C° 0 mm 5 mps 711 mmHg 49%
    16:00 +15°C° 0 mm 5 mps 711 mmHg 49%
    17:00 +15°C° 0 mm 5 mps 711 mmHg 49%
    18:00 +13°C° 0 mm 3 mps 711 mmHg 57%
    19:00 +12°C° 0 mm 2 mps 711 mmHg 66%
    20:00 +9°C° 0 mm 0 mps 711 mmHg 74%
    21:00 +10°C° 0 mm 1 mps 711 mmHg 73%
    22:00 +10°C° 0 mm 1 mps 710 mmHg 71%
    23:00 +10°C° 0 mm 1 mps 710 mmHg 70%
    Show more